FENGYUN 1C DEB, 29957

Orbit data source: Space-Track

FENGYUN 1C DEB, 29957 is space debris in SSO originally from a launch on Mon, 10 May 1999 UTC launched from the Taiyaun Space Center, China (TSC). Fengyun 1C debris stems from the Chinese weather satellite Fengyun-1C, which was intentionally destroyed by a Chinese anti-satellite missile in 2007. This event dramatically increased the amount of space debris, with thousands of trackable fragments posing hazards to satellites and human spaceflight. The Fengyun 1C debris cloud has become a focal point in discussions about space sustainability and the need for international regulations to prevent the creation of new debris.

Loading next visibility...
Identifier
29957, 1999-025KF
Orbit
SSO
Country
Flag of CNCN / PRC
Related business
Manufacturer
Unknown
Mission
Spacecraft
Bus & Motor
Unknown
Mass
Unknown
Launch date (UTC)
1999-05-10 (26 years ago)
Launch vehicle
Unknown
Launch site
Taiyaun Space Center, China (TSC)
Object type
Payload
Rocket body
Debris
Shape & HBR
Sphere, Unknown HBR
Radar Cross Section
0.031 m², Small (<0.1 m²)

Expand to show TLE details & history
Last TLE update: 15 hours ago

TLE from 15 hours ago
0 FENGYUN 1C DEB
1 29957U 99025KF  25287.83415120  .00014999  00000-0  39899-2 0  9997
2 29957  98.9217  51.3995 0036168 350.0576 161.2467 14.48248965966382
Epoch: 2025-10-14T20:01Z
TLE epoch observation values (Epoch: 2025-10-14T20:01:10.663Z)
Latitude
28.23111°
Longitude
-87.70283°
Altitude
759.231 km
Speed
7.465 km/s
True Right ascension
15h 44m 50s
True Declination
28° 05' 17"
Sunlit
Object was in daylight at epoch
Visualization orbit readout
Latitude
Unknown
Longitude
Unknown
Altitude
Unknown
Speed
Unknown
Apparent Right ascension
Unknown
Apparent Declination
Unknown
Sunlit
N/A
Visualization observer readout
Local Sidereal Time
06:00:07
Azimuth
Unknown
Elevation
Unknown
Doppler factor
Unknown
Orbital elements
Apogee altitude
754.208 km
Perigee altitude
702.801 km
Semi-major axis
7,106.642 km
Eccentricity
0.00362
Inclination
98.9217°
RAAN
51.3995°
Arg. of periapsis
350.0576°
True anomaly
161.37938°
Mean anomaly
161.2467°
Eccentric anomaly
161.31309°
Mean motion
3.62282 °/min
Orbital period
99.37 mins
BSTAR
0.0039899
Loading maneuver chart data...
Computing Atmospheric mass density...

Documentation

Showing up to 5 results
|